Theta_e
342 342 341 342 343 342 342 342 343 346 347 349 352 353 354 355 354 353 353 353 353 355 354 353 353 353 353 352 354 353 349 348 348 347 349 350 351 353 355 355 355 355 355 356 356 354 354 356 355 354 354 354 354 355 355 355 358 358 356 356 357 355 351 345 343 344 343 342 344 343 341 342 343 345 345 342 341 340 341 343 343 342 341 343 344
344 343 342 344 344 343 343 342 343 345 348 350 352 354 355 355 355 355 354 354 353 353 353 353 353 354 353 352 353 354 352 351 349 348 350 350 351 353 354 355 356 356 356 356 356 355 355 357 356 354 355 354 355 357 356 357 360 358 357 356 355 354 351 345 342 344 345 343 343 346 346 343 339 341 344 344 343 341 339 341 340 342 342 341 340
345 344 344 345 345 345 343 343 343 345 349 350 352 354 355 356 355 356 355 354 353 351 352 353 353 354 353 352 353 353 353 352 351 351 351 352 352 352 354 355 355 356 357 357 356 355 356 357 356 355 357 355 356 358 356 357 359 357 356 356 355 354 350 343 342 346 348 344 346 354 353 350 351 347 343 342 342 340 339 339 339 341 342 341 341
346 344 346 346 346 346 344 345 344 346 349 351 353 354 356 356 356 357 355 353 352 351 353 353 353 355 354 351 352 352 353 353 352 353 352 353 353 354 356 355 353 356 357 356 356 355 356 356 356 358 358 356 355 357 357 356 357 356 355 356 357 357 351 344 344 346 349 351 358 364 353 356 369 359 345 341 338 339 338 337 338 339 340 340 343
347 346 346 346 348 347 345 346 345 346 348 351 352 353 356 357 357 358 355 354 354 352 354 356 357 358 355 353 354 353 354 354 353 353 352 352 353 355 357 355 354 356 354 354 355 355 356 355 355 358 358 357 356 357 357 356 356 356 354 354 355 357 354 349 347 344 347 352 358 364 364 372 374 354 349 352 341 337 340 336 337 339 338 339 342
346 347 347 347 349 348 347 346 346 347 347 350 352 352 356 358 358 359 357 356 355 354 356 358 360 359 357 357 358 357 357 356 354 354 353 352 353 355 356 355 355 354 353 354 355 355 357 356 356 358 357 357 357 357 357 354 355 356 354 355 355 355 356 355 352 345 346 350 349 354 360 368 366 357 365 368 347 339 340 336 336 337 338 339 341
347 347 347 348 349 348 348 346 346 347 347 350 350 351 356 359 360 360 359 358 357 358 359 359 359 359 358 359 360 357 357 356 355 355 353 352 353 354 355 355 355 355 353 354 355 356 357 357 357 358 357 356 355 356 356 354 355 355 355 358 355 353 357 359 355 349 347 348 349 349 347 348 351 357 369 373 366 360 346 336 337 337 338 340 340
348 349 348 348 350 349 348 348 348 349 349 349 350 351 356 360 361 361 360 360 359 360 360 359 359 359 357 357 358 356 356 356 355 354 353 352 354 354 354 354 355 355 353 354 356 356 357 357 355 357 358 356 355 357 356 355 356 354 355 358 355 353 357 359 355 352 350 348 348 350 349 346 345 348 354 359 369 374 360 346 343 339 338 340 340
350 350 349 349 350 351 349 350 350 350 350 350 350 351 356 359 361 361 361 361 361 360 360 359 359 359 357 355 355 354 355 357 354 352 352 352 355 355 354 354 355 356 354 355 357 356 356 357 355 357 359 358 357 357 355 354 356 355 355 356 356 356 358 357 354 353 354 351 349 349 350 351 348 345 344 344 354 372 374 359 347 342 343 342 340
351 348 349 350 351 351 351 351 350 350 351 350 351 352 355 358 360 361 361 361 361 360 360 359 358 359 356 353 353 353 355 355 352 353 354 354 356 356 355 355 356 358 356 355 357 356 356 357 357 358 359 358 357 356 354 356 357 357 356 356 358 358 357 356 355 355 355 353 351 351 352 353 351 347 346 346 348 359 369 357 343 343 348 347 343
350 348 349 350 351 351 352 353 351 351 351 350 352 354 356 358 359 361 361 361 362 360 360 360 359 359 356 352 352 353 356 355 354 357 357 356 357 358 358 357 357 359 358 356 357 357 357 358 358 357 359 358 357 357 356 356 356 356 357 357 357 357 357 357 356 357 356 353 351 351 352 350 349 347 346 348 346 348 359 357 344 343 347 345 344
350 351 350 349 351 351 351 352 351 350 351 350 352 355 357 357 358 360 360 361 362 361 360 359 359 359 355 353 353 354 355 355 356 359 358 358 358 358 360 359 357 357 357 357 357 356 358 359 358 358 357 357 357 358 357 355 355 355 356 357 356 357 357 357 357 357 356 354 352 352 350 347 347 348 346 346 346 346 355 356 346 345 349 346 343
350 352 351 349 350 350 350 351 350 350 351 350 351 353 356 358 359 360 360 361 362 361 360 359 359 358 356 355 355 354 355 354 356 358 358 359 358 358 359 358 356 355 356 357 357 356 359 359 358 358 358 357 357 358 357 357 355 354 358 359 357 358 358 357 358 358 356 354 354 353 352 350 349 349 348 347 347 348 350 352 351 352 353 348 344
354 350 349 350 351 349 350 351 350 350 350 350 350 352 356 358 359 360 360 360 361 361 360 358 358 358 356 357 356 355 355 355 356 357 357 358 359 359 359 358 357 356 356 357 356 356 359 361 360 360 359 357 357 359 358 358 357 356 358 359 357 358 359 359 359 358 357 355 354 353 352 352 351 349 350 349 349 350 350 350 356 358 354 349 349
361 353 348 351 353 350 351 351 350 349 350 350 350 351 355 357 359 360 360 361 360 359 360 359 357 357 357 357 357 355 355 357 358 357 357 358 358 359 358 357 357 356 357 357 355 355 357 360 360 360 360 357 356 360 359 358 359 358 358 357 356 357 357 359 359 357 358 356 354 353 352 352 352 351 352 351 349 350 350 351 357 362 363 358 355
363 359 351 351 352 351 351 351 350 349 350 350 351 351 354 357 359 360 361 361 361 359 359 358 357 357 357 357 357 357 356 357 357 356 357 357 357 357 356 357 356 355 356 357 356 356 356 358 359 359 361 360 359 359 359 359 358 358 359 358 357 358 357 358 358 357 357 357 355 354 353 352 352 352 353 353 351 352 354 354 354 358 367 369 363
363 364 359 352 351 352 351 349 350 348 349 350 351 351 353 356 358 360 361 361 361 360 360 359 358 358 358 357 357 357 357 356 356 357 357 356 356 357 356 357 356 354 355 357 358 358 357 358 359 359 360 362 361 360 359 360 358 357 359 357 356 358 358 357 358 356 356 358 357 354 354 353 352 353 353 353 354 356 355 353 353 354 361 371 372
361 364 363 357 351 351 351 350 349 348 349 351 351 352 353 355 357 359 360 360 360 361 361 359 359 359 358 358 357 357 357 356 355 357 357 356 356 358 356 356 357 355 354 357 358 358 359 359 358 358 359 360 361 361 359 359 359 359 359 357 356 358 357 355 355 354 354 357 357 356 356 356 354 354 354 353 352 355 356 354 354 355 355 362 367
362 361 363 363 355 351 351 350 350 349 350 352 352 352 353 354 356 357 358 359 358 359 359 359 359 359 359 359 357 356 357 356 355 357 357 357 358 359 357 355 355 355 355 355 356 357 358 359 359 359 359 359 360 361 359 359 359 358 357 357 358 358 355 353 352 353 355 357 357 357 358 357 357 356 356 355 353 354 356 355 354 355 356 358 359
362 361 361 363 359 354 352 350 352 351 350 353 352 352 352 353 355 355 355 356 356 356 356 357 358 357 358 358 357 356 355 355 355 355 356 357 357 357 357 355 355 357 356 355 355 355 357 359 359 358 359 359 360 360 360 360 359 358 357 357 357 356 355 355 356 358 358 357 356 358 358 358 358 358 357 357 356 355 356 355 355 355 355 358 357
360 361 360 360 358 355 353 352 352 352 353 353 352 352 353 353 353 353 353 354 353 353 354 355 356 355 355 357 357 357 356 355 355 355 354 355 355 355 356 355 356 358 356 356 356 357 356 357 358 357 357 359 359 359 359 360 360 359 358 357 357 357 356 357 360 360 358 357 358 359 360 359 359 360 359 357 356 355 355 354 356 356 355 357 357
357 359 357 357 356 353 351 353 354 355 354 353 354 354 353 354 354 352 353 354 352 351 352 353 354 354 354 355 356 356 356 355 354 354 354 354 354 355 355 354 356 357 355 356 357 357 357 357 358 356 356 358 357 357 358 359 359 360 359 358 359 360 358 357 358 359 358 358 358 359 360 360 359 359 358 357 355 353 354 354 354 354 354 355 355
357 358 357 357 355 352 351 352 354 355 354 355 358 357 355 357 357 353 352 353 350 349 350 351 352 352 353 353 354 355 355 355 353 352 353 353 354 355 356 355 356 356 355 357 357 358 358 358 358 357 357 357 356 356 358 358 358 360 359 358 358 360 360 359 358 358 359 359 358 358 359 359 358 357 357 357 356 355 354 356 355 354 355 356 356
359 360 360 358 356 356 355 355 356 358 359 360 359 356 354 356 357 354 354 354 351 350 350 350 351 351 352 352 353 353 354 354 353 351 351 351 352 354 356 357 357 356 356 357 358 358 358 358 358 358 356 356 356 357 358 358 358 358 359 359 358 358 359 360 359 358 359 358 358 358 357 357 356 356 356 358 357 355 354 355 355 355 356 356 357
359 358 360 361 362 363 363 362 361 361 360 358 355 354 354 354 354 353 354 354 352 351 351 351 351 351 351 351 351 351 352 352 352 351 349 349 350 351 354 356 356 355 356 357 357 357 357 356 357 358 357 356 356 358 359 359 357 357 359 360 360 358 357 358 359 359 358 359 358 358 358 357 357 356 357 357 356 355 355 354 354 355 356 355 356
357 356 358 361 363 362 361 361 363 360 358 357 356 356 356 355 355 354 353 354 355 355 354 354 354 354 353 353 351 351 351 351 351 351 349 349 349 349 351 354 356 355 355 356 356 357 357 355 355 358 359 357 357 358 360 359 358 357 359 360 360 359 358 357 359 359 358 359 359 358 358 357 357 356 356 356 355 355 356 355 355 355 356 356 357
357 355 355 358 358 357 357 360 363 363 361 360 360 358 356 355 356 357 355 356 357 358 357 355 355 355 355 355 353 352 352 351 351 351 350 349 348 348 348 351 355 355 355 356 356 356 357 355 355 358 360 358 357 358 359 359 359 357 357 358 359 359 359 359 359 359 359 358 357 357 357 356 356 356 355 355 354 354 355 354 354 354 355 356 356
357 356 355 356 356 355 355 358 362 364 363 363 363 362 359 356 355 356 355 356 358 360 360 358 355 354 355 356 354 353 353 352 352 352 351 350 349 348 348 349 353 355 355 355 355 354 355 355 355 358 359 358 358 359 359 359 359 358 357 358 358 358 359 358 357 359 359 357 356 356 356 355 356 355 354 355 354 353 353 354 354 354 354 355 356
355 355 353 353 354 355 354 354 358 360 359 359 360 362 361 359 358 357 355 358 362 364 363 362 361 359 358 359 357 356 354 353 353 353 353 352 351 350 349 348 350 353 352 353 353 353 353 354 354 356 359 359 358 358 358 358 358 358 357 358 358 358 358 357 355 357 358 357 356 355 354 353 353 353 354 354 354 354 354 353 354 354 354 355 356
353 352 351 351 352 354 353 353 354 354 352 352 353 356 357 357 357 357 357 358 362 363 363 363 364 365 363 361 361 362 360 355 354 355 356 356 355 354 354 351 351 352 351 351 351 352 353 353 353 355 357 358 357 357 358 357 357 357 357 357 357 357 357 356 355 356 357 356 355 355 353 352 350 350 351 352 353 353 353 353 353 353 352 353 356
349 348 349 349 350 351 352 354 354 352 350 348 349 350 351 351 351 351 351 352 354 356 358 359 361 362 363 362 361 363 361 358 359 359 359 361 361 359 358 356 354 353 353 352 351 351 351 352 353 354 355 356 355 354 354 354 355 356 356 356 357 356 355 355 356 356 356 355 354 354 352 350 350 351 350 350 351 352 352 351 349 347 346 347 351
348 347 347 348 348 348 349 351 351 352 352 351 351 351 352 353 352 350 349 348 348 348 349 353 357 358 359 360 361 361 360 359 359 358 356 358 360 361 360 358 355 353 352 353 352 351 351 351 352 353 352 354 354 353 352 351 352 354 354 354 354 353 352 354 354 353 353 353 353 353 352 350 349 350 349 350 352 354 355 353 350 347 346 346 346
348 347 346 346 346 346 346 346 347 348 349 350 353 353 353 354 354 354 354 353 351 350 348 350 354 355 356 357 357 358 356 355 355 353 351 351 352 354 357 357 357 355 354 354 353 353 354 353 353 353 352 351 353 353 351 349 350 351 350 349 349 349 348 348 350 350 350 351 353 352 352 351 351 350 349 350 353 354 355 354 352 352 351 351 349
346 345 345 345 345 344 344 344 345 346 345 345 348 349 350 351 352 353 354 354 354 353 352 352 353 354 356 355 354 354 354 354 353 351 350 349 348 348 350 353 355 354 354 355 355 355 355 354 353 353 352 351 350 349 348 347 348 348 346 346 349 348 347 345 346 348 348 348 349 350 351 353 354 354 353 352 353 352 353 353 354 355 355 356 356
343 343 343 344 344 344 344 343 343 344 343 343 344 345 346 347 348 349 349 349 349 349 350 351 351 353 353 353 353 353 353 354 353 352 352 351 350 350 349 350 351 351 352 355 355 355 355 354 352 351 351 350 347 346 348 348 347 347 348 349 351 350 348 347 346 348 349 348 348 349 351 352 353 355 356 356 355 354 353 354 355 357 358 359 358
343 342 342 342 342 342 342 342 342 343 343 343 344 344 344 344 344 344 343 344 344 344 346 347 347 348 349 350 350 351 351 351 351 351 352 352 352 353 351 350 350 350 353 356 356 355 355 354 352 351 350 349 347 346 349 349 348 348 350 350 350 350 350 350 349 349 350 351 350 349 350 350 351 353 356 357 357 358 357 357 358 360 360 359 357
339 339 340 341 341 340 340 340 340 341 341 341 342 342 342 341 340 340 340 340 341 342 343 344 345 345 346 347 348 349 349 349 348 348 349 350 351 351 351 351 352 352 355 356 355 355 354 353 352 351 350 349 347 346 349 350 349 350 350 349 351 353 353 352 352 352 352 352 350 349 349 349 350 351 353 356 358 359 359 359 361 362 361 359 358
333 332 332 334 336 337 337 337 338 339 340 340 340 340 340 339 338 338 338 337 338 339 339 341 343 344 345 346 347 347 347 347 347 347 347 347 348 348 349 350 351 352 354 354 354 354 353 353 352 350 349 349 349 348 350 350 350 350 350 350 353 355 355 354 354 354 354 352 351 350 350 350 351 351 353 355 357 357 356 358 360 360 358 357 357
330 328 326 325 327 329 329 331 333 334 336 337 337 338 339 338 337 337 336 336 337 337 337 338 339 341 343 345 345 345 346 346 346 346 346 347 347 347 348 348 349 350 352 352 352 351 351 351 350 349 348 349 349 349 350 352 352 351 351 352 353 355 355 355 355 355 354 353 352 351 350 350 351 352 353 354 355 354 353 353 355 356 356 356 356
325 325 324 323 324 324 325 327 328 329 332 333 333 333 334 334 334 334 335 336 336 335 335 335 336 337 339 340 342 343 344 344 344 345 345 346 347 347 348 348 348 349 350 350 350 349 350 350 349 349 349 347 348 349 350 351 352 353 354 354 354 355 355 356 356 355 354 353 352 352 351 350 352 353 352 353 353 352 351 351 352 353 354 355 355
323 324 324 323 323 324 324 325 326 327 329 330 330 330 330 331 331 331 332 334 334 334 334 334 335 335 335 336 338 340 341 342 343 344 344 344 345 347 348 347 346 347 347 346 346 345 345 346 346 346 345 344 345 347 347 348 348 349 351 352 352 353 353 354 355 353 352 352 351 351 351 351 351 351 351 352 352 352 353 352 352 351 352 352 352
323 322 322 322 322 323 323 323 324 326 327 328 329 329 328 328 329 329 330 330 330 332 333 333 334 334 334 335 335 337 339 340 341 342 344 344 344 346 347 345 344 345 345 344 343 341 341 342 343 343 342 342 342 342 342 343 343 344 347 349 350 350 350 350 351 351 350 350 349 349 349 350 350 350 350 351 351 351 351 350 350 349 348 347 346
325 324 324 322 322 323 323 323 323 324 325 326 327 328 328 328 328 328 328 328 329 328 328 330 331 331 332 333 334 335 336 336 337 339 342 343 343 344 344 345 345 345 345 344 342 340 341 341 340 337 337 337 336 335 336 336 336 336 338 340 342 343 345 348 348 348 349 348 346 346 347 347 348 348 347 347 347 347 346 345 344 342 340 337 336
323 324 324 324 324 325 324 324 324 324 324 324 325 326 327 327 327 328 328 328 329 328 327 327 327 328 329 331 332 334 335 335 335 336 338 339 340 340 341 343 344 344 344 344 343 342 342 341 338 335 333 332 331 331 332 332 332 332 331 331 331 333 337 342 345 346 347 345 340 338 338 338 337 337 337 337 337 337 338 337 335 335 335 335 336
320 321 320 320 321 322 322 323 324 324 324 323 324 325 326 326 326 326 327 328 328 328 328 327 325 325 326 328 329 330 332 333 335 335 336 337 337 337 338 339 340 340 342 344 344 343 343 343 341 339 337 335 334 334 334 334 333 333 333 334 334 332 332 335 339 340 339 335 329 326 327 327 328 329 330 330 332 333 335 334 332 333 336 340 343
320 321 320 318 317 319 321 322 323 324 325 324 324 324 325 325 324 323 324 326 327 328 329 328 326 324 325 327 326 326 326 328 330 332 333 334 335 336 336 336 335 336 337 339 340 341 343 343 343 342 341 340 339 337 334 331 330 332 332 333 337 337 335 335 338 339 336 331 324 321 323 328 331 333 334 335 336 338 339 339 338 339 342 344 346
321 323 323 322 322 323 323 322 322 323 323 323 323 323 323 323 323 322 323 325 326 327 327 327 326 325 325 325 324 326 325 324 325 328 328 329 331 332 332 330 329 329 331 333 335 337 339 340 340 341 340 338 337 334 329 326 326 327 327 328 332 333 331 330 333 334 333 329 323 319 323 333 337 337 336 338 338 340 341 341 340 341 341 342 344
324 325 324 324 324 324 322 321 321 321 322 322 321 321 321 321 320 321 322 324 325 325 326 326 325 325 325 324 323 325 326 323 322 323 323 323 325 329 328 324 320 320 322 326 330 333 334 335 337 338 338 335 331 328 327 325 325 325 324 324 325 324 323 323 324 323 322 320 319 320 327 336 340 338 337 336 336 338 340 338 336 334 333 334 336
325 325 324 324 324 323 322 321 319 317 318 320 320 319 319 319 318 319 320 322 324 325 325 325 324 324 326 326 324 324 325 325 324 323 320 317 319 323 323 318 313 314 315 318 322 326 328 331 333 333 333 332 329 325 325 325 324 324 324 324 323 322 322 322 323 324 321 318 320 327 334 339 341 341 339 337 335 336 336 334 332 332 332 332 334
326 326 325 326 326 325 323 322 320 316 313 313 315 317 318 319 319 320 320 321 323 325 324 322 321 321 324 326 325 324 324 325 326 325 323 321 320 321 320 316 313 312 311 312 315 317 319 325 330 329 327 326 325 323 324 324 323 324 324 323 323 323 322 323 325 327 326 324 327 334 338 339 339 338 337 335 334 333 333 332 331 331 331 331 333
327 327 327 326 325 324 324 323 322 319 317 315 315 316 317 317 318 319 320 321 322 323 324 323 320 319 321 324 324 324 324 324 325 326 326 326 324 323 321 319 318 317 314 312 312 311 312 318 326 327 326 324 321 321 322 323 323 323 323 323 323 322 323 324 327 328 327 329 332 335 336 336 336 335 333 333 332 332 331 330 330 330 329 330 330
Wind_Speed
15 19 18 17 18 17 17 16 16 16 16 17 16 15 16 17 17 18 17 17 16 15 15 14 12 12 14 13 12 12 13 13 12 13 13 13 13 13 11 9 9 8 7 5 3 4 7 6 5 6 4 2 2 3 4 4 2 3 2 4 5 6 8 5 3 1 5 3 1 6 7 5 5 5 6 7 7 8 6 4 7 12 10 8 7
15 17 17 17 17 18 18 17 16 17 18 18 16 16 17 17 17 17 17 16 15 14 14 14 12 12 12 11 11 12 13 13 12 12 13 14 14 13 10 10 9 8 7 6 5 5 7 5 4 5 4 3 2 3 2 2 1 1 2 4 5 7 8 4 3 2 1 7 7 5 8 7 5 6 8 9 10 9 8 4 6 10 11 11 7
13 14 16 18 18 18 17 17 17 18 19 18 17 17 17 17 18 17 17 16 15 14 14 13 13 12 11 11 12 12 12 12 12 12 14 14 14 12 10 10 9 8 7 7 6 6 7 6 5 4 4 3 1 1 1 1 1 1 3 3 5 8 6 2 3 3 6 3 7 2 4 5 3 7 10 8 7 9 9 7 6 8 11 11 7
14 14 15 17 18 18 17 17 17 18 18 18 18 18 17 18 18 17 17 16 15 15 13 13 13 10 10 12 13 12 11 12 13 14 14 14 13 12 11 11 10 8 8 8 7 6 7 8 7 5 4 3 2 1 0 1 1 1 2 2 5 10 6 1 2 5 5 5 1 1 1 1 0 4 7 6 2 5 9 8 5 7 11 7 8
15 15 15 16 18 18 18 17 18 18 18 18 18 18 18 18 18 18 17 16 16 16 14 14 13 10 11 13 11 11 12 13 14 14 13 14 13 12 11 12 11 9 9 8 8 7 6 7 8 7 4 3 3 1 1 2 1 1 2 2 4 9 9 6 3 1 2 5 4 2 3 1 1 4 5 2 3 6 6 8 3 6 11 5 7
13 14 14 16 18 19 18 18 18 18 18 18 18 18 19 19 18 18 18 16 16 16 15 14 14 12 12 13 11 11 12 11 12 13 12 13 13 12 12 12 11 10 10 9 8 9 7 7 8 7 5 4 4 2 1 1 1 2 2 2 4 6 9 9 7 2 3 0 1 5 4 2 2 3 4 2 4 8 3 5 2 5 11 6 5
13 14 15 15 17 19 19 19 19 18 18 18 18 18 20 21 19 19 18 17 17 17 16 15 14 13 13 13 11 11 11 9 11 12 11 11 11 13 12 12 12 11 11 10 9 9 8 7 7 6 5 6 4 2 2 2 2 1 1 1 3 4 6 11 10 5 0 4 2 4 3 2 3 1 2 2 2 5 7 2 2 5 8 8 9
13 14 15 16 17 19 19 19 20 19 19 19 18 19 21 22 20 19 18 18 18 18 17 16 15 14 13 13 11 10 10 10 12 13 11 11 11 12 12 12 12 11 11 11 9 10 9 7 7 5 5 6 5 3 3 3 2 2 1 1 3 3 4 8 9 8 6 3 1 3 3 1 2 2 3 1 2 1 5 4 3 3 1 3 3
14 14 14 16 18 20 20 20 19 19 19 19 19 19 21 22 20 19 19 19 19 19 18 16 15 15 13 13 12 10 10 12 14 12 11 12 12 11 12 12 11 11 11 11 10 10 10 9 9 7 5 5 5 4 5 4 3 3 2 3 3 2 4 6 6 7 10 6 3 4 7 6 5 3 4 5 3 1 2 3 5 10 5 5 7
13 14 15 17 20 20 21 21 20 19 19 18 19 20 21 21 20 20 19 19 19 19 18 16 15 15 14 13 14 12 12 14 15 13 11 12 12 11 12 12 11 11 11 11 11 10 10 10 9 8 6 5 5 5 4 5 3 3 4 4 3 2 2 4 5 5 7 7 5 3 5 7 8 7 2 1 1 2 1 2 4 8 4 4 7
12 13 15 18 21 21 20 21 20 19 19 19 19 19 20 21 21 20 19 20 20 19 18 17 16 15 14 13 14 14 15 16 15 13 13 13 12 11 12 12 11 11 11 11 12 11 10 10 9 8 7 6 5 4 3 4 3 3 5 4 2 2 2 3 4 5 5 5 6 4 4 8 7 4 3 2 4 3 2 3 3 2 4 4 3
13 12 14 16 17 19 20 20 20 21 21 21 20 19 19 21 22 21 19 21 21 19 18 17 16 15 14 14 14 15 16 16 15 14 15 14 13 13 13 12 12 12 11 11 12 11 11 10 8 8 8 8 7 6 5 5 5 4 5 4 3 3 2 3 4 6 5 4 8 5 4 7 5 6 8 3 4 6 3 4 1 2 3 7 6
13 11 13 14 14 17 21 21 21 21 21 21 21 22 21 20 22 21 20 21 21 20 19 18 17 16 15 15 14 14 14 15 15 14 14 14 13 14 14 13 12 12 12 12 11 11 11 11 9 9 8 8 8 7 6 5 5 5 4 3 4 3 3 4 4 6 5 4 7 6 4 5 6 7 10 7 6 7 5 6 7 5 3 8 8
11 13 14 13 13 17 19 20 20 20 20 20 20 23 22 21 22 22 20 21 21 20 19 18 17 16 16 16 15 14 13 14 14 13 13 13 12 13 13 12 11 11 11 12 11 11 11 11 10 9 9 9 8 8 7 6 5 6 4 4 5 4 3 4 4 5 6 5 6 6 5 6 4 4 5 6 6 6 6 5 6 8 7 8 11
6 11 16 13 15 19 18 19 21 20 21 21 20 22 23 22 23 23 21 21 21 21 20 19 18 17 17 16 15 14 13 13 14 14 14 13 12 12 12 11 10 10 11 11 10 11 11 12 11 10 10 10 10 9 8 8 7 6 6 5 5 5 5 4 4 5 6 5 5 5 5 5 5 4 4 6 5 3 4 4 4 4 5 6 9
4 7 13 14 17 20 19 20 21 21 21 21 21 22 23 23 24 23 21 20 21 21 21 20 19 18 17 17 16 15 14 13 13 13 13 13 12 12 12 11 11 11 11 9 8 9 11 12 12 11 11 10 10 10 9 9 8 7 8 7 5 6 6 5 5 5 6 6 5 5 4 5 6 4 4 6 5 3 3 3 3 2 1 1 4
5 3 6 13 18 19 20 22 22 22 22 21 21 22 23 24 24 23 22 20 20 20 20 20 19 18 18 18 17 16 15 14 13 13 13 13 12 12 12 11 10 11 11 9 9 10 11 11 11 11 12 11 10 11 10 10 10 9 9 9 7 7 8 7 7 7 6 6 6 5 5 5 6 5 4 4 3 2 2 2 4 2 1 0 1
7 2 3 8 17 18 19 23 24 23 22 22 22 22 22 24 23 23 23 22 21 20 19 19 19 18 18 18 18 17 15 14 14 13 13 12 12 11 11 11 10 10 10 10 10 11 11 11 11 11 12 11 10 11 11 10 10 9 9 10 9 8 9 8 9 9 7 6 7 5 4 4 5 5 4 5 5 3 3 4 4 3 2 2 2
7 5 3 3 12 18 19 21 23 24 23 21 22 21 21 22 22 22 22 22 21 20 19 19 19 18 17 18 18 17 16 14 14 14 13 12 12 11 11 12 11 10 11 11 11 11 12 12 11 11 12 12 11 11 11 11 11 10 10 10 9 9 10 9 9 9 7 7 7 6 5 5 4 5 4 5 7 4 4 5 3 3 5 5 5
8 7 4 2 5 14 20 21 21 23 22 21 22 22 22 21 21 22 22 22 21 20 19 19 18 17 17 18 17 17 17 15 14 14 14 14 14 13 11 12 11 10 12 11 10 12 12 12 12 12 12 12 12 11 11 12 12 11 10 10 10 11 11 9 9 9 8 8 7 7 6 5 5 5 5 6 7 6 6 7 6 5 5 6 7
10 8 7 5 3 7 13 17 21 22 20 21 21 19 19 21 21 22 23 23 22 20 20 19 18 17 17 17 17 17 16 16 14 14 15 15 16 15 14 12 11 11 12 11 10 12 12 12 12 12 12 12 13 12 12 13 13 12 12 11 10 11 11 10 9 9 9 9 8 7 6 6 6 6 7 7 7 7 7 6 6 7 5 5 6
13 11 9 7 6 5 7 10 18 22 19 19 18 15 16 18 19 21 22 23 22 20 21 21 18 17 18 17 17 17 16 16 15 15 15 15 16 16 16 14 12 12 13 12 11 11 12 12 13 12 12 13 14 13 12 13 13 13 12 11 10 11 12 11 11 10 10 9 8 8 7 8 8 8 8 9 8 8 7 5 6 7 5 6 7
13 12 10 9 10 11 11 10 15 21 20 18 16 17 18 15 14 18 19 20 20 18 20 21 19 17 17 17 17 17 17 16 16 15 15 15 15 14 14 14 13 12 13 12 12 11 12 13 13 12 13 13 14 14 14 13 14 13 12 12 11 12 12 12 12 11 11 10 9 9 9 8 9 9 9 9 8 8 6 4 5 6 5 6 7
9 8 8 9 10 11 12 14 15 15 15 18 18 19 21 16 13 16 16 16 18 17 17 19 19 17 17 17 17 17 17 17 16 16 16 15 15 14 14 14 13 12 12 13 12 12 14 15 13 12 14 14 13 15 15 13 13 14 14 13 12 12 13 12 12 12 11 11 11 11 10 9 9 9 8 8 8 8 6 6 6 6 5 6 7
7 4 4 5 5 4 3 6 10 14 16 19 19 20 21 18 17 17 16 15 16 16 17 17 17 17 16 16 16 16 16 17 17 16 16 16 15 15 15 15 14 13 13 13 13 13 15 17 15 13 14 15 15 15 15 14 13 14 14 13 13 13 14 13 13 12 12 11 11 11 10 9 9 9 9 8 9 8 8 8 8 7 6 7 7
9 7 6 6 4 7 8 6 9 15 17 16 16 17 18 17 16 18 17 16 15 15 16 17 16 16 15 15 15 15 16 16 16 15 16 16 16 15 15 16 16 15 14 14 14 14 15 17 18 15 14 16 17 16 16 15 14 14 14 13 13 13 13 13 12 13 12 12 12 11 11 10 10 10 10 9 9 8 8 9 9 8 7 8 9
10 8 7 7 7 9 10 8 10 14 15 14 15 16 18 16 15 15 16 16 17 17 17 18 18 18 17 15 14 14 14 15 15 15 15 15 15 16 16 16 17 16 15 15 15 16 15 16 17 16 15 16 17 16 16 16 15 15 15 14 13 12 13 13 13 13 13 12 12 12 12 12 11 12 11 10 10 9 9 9 9 9 8 8 9
8 9 8 8 8 8 7 9 11 12 12 14 15 15 17 17 15 16 18 19 19 17 16 17 18 19 18 16 16 15 14 14 14 14 14 14 14 15 16 16 17 17 17 16 16 17 16 15 16 17 16 16 17 16 16 17 16 16 15 14 13 13 12 12 13 13 13 13 13 13 13 13 13 14 13 12 10 9 9 8 8 9 9 8 8
8 10 9 7 8 8 6 6 9 9 10 9 9 11 13 14 14 15 16 16 15 14 13 13 14 15 16 16 16 14 14 14 14 13 12 12 13 13 13 15 16 19 18 17 17 17 17 18 18 18 17 16 15 16 18 17 16 16 15 13 14 14 12 11 13 13 14 14 14 13 13 13 14 15 15 14 12 11 10 9 8 8 8 8 9
7 7 8 7 6 6 7 7 7 8 7 5 3 2 5 8 10 10 9 8 9 10 10 11 11 11 12 13 11 10 11 12 12 11 10 10 10 9 9 10 12 14 16 17 18 18 18 18 17 16 16 16 14 14 17 18 17 16 15 13 13 14 13 12 13 13 13 13 13 13 14 14 14 14 14 13 15 15 14 14 14 13 12 11 11
6 4 6 7 5 2 3 5 7 10 11 9 9 9 8 8 9 9 8 6 6 6 6 8 10 9 9 9 7 6 8 8 8 7 7 9 10 9 10 10 8 8 8 10 14 16 15 16 17 16 16 15 14 14 16 18 18 17 16 13 12 13 12 13 13 13 13 13 13 13 14 14 14 13 12 12 14 15 15 16 16 16 16 15 15
9 4 3 5 4 4 5 5 4 7 10 12 15 16 13 12 12 12 12 12 12 11 10 9 9 9 8 7 6 4 5 8 9 6 2 4 6 7 8 9 8 9 9 7 8 10 12 13 15 15 14 13 14 14 15 16 18 19 18 16 14 12 11 12 13 15 15 15 14 13 13 13 12 12 12 12 14 14 13 14 14 14 14 15 17
11 9 7 6 7 8 8 7 5 4 5 4 7 10 9 10 10 11 12 12 12 13 14 12 10 10 9 9 9 8 6 7 11 11 8 7 8 9 8 7 7 9 11 10 8 7 8 10 9 10 12 12 12 13 14 16 18 20 20 18 17 14 12 13 14 15 15 14 13 13 14 15 13 11 12 12 12 12 12 13 13 13 14 15 17
11 11 9 9 11 11 10 9 8 9 10 8 7 7 7 6 5 4 6 7 6 7 10 11 10 9 9 9 10 10 6 3 8 14 15 14 14 16 14 11 10 10 13 14 12 9 10 11 9 8 9 8 6 10 16 18 20 24 24 22 19 15 13 13 14 14 14 13 13 13 14 14 14 14 14 14 13 13 13 13 13 14 16 17 18
11 11 10 10 12 12 11 10 8 8 8 7 7 7 8 11 12 11 9 8 7 6 3 5 6 6 7 9 9 9 7 5 8 11 14 15 16 17 17 16 14 14 15 15 15 14 15 14 12 10 9 6 5 10 15 17 20 25 25 22 19 15 12 12 14 14 14 14 13 12 12 11 11 12 13 13 12 13 14 14 13 13 15 16 16
11 12 12 13 14 14 14 12 10 10 9 8 7 8 10 12 13 14 15 14 13 12 9 5 5 5 4 5 5 6 7 8 10 10 10 12 12 13 17 19 18 17 15 14 14 16 17 16 14 13 12 9 7 9 12 12 13 16 18 17 14 13 11 11 12 13 13 12 10 9 11 12 11 11 11 12 12 12 13 13 12 12 13 14 15
15 14 14 15 15 16 16 13 11 11 11 11 11 11 13 15 14 15 16 16 16 15 13 9 4 2 2 2 2 4 7 8 9 8 8 10 12 14 16 17 17 15 15 14 14 15 15 14 13 13 13 12 10 8 9 10 11 13 14 12 9 8 9 9 9 10 11 10 9 9 11 12 13 13 13 12 11 11 12 11 11 12 13 14 15
18 19 18 16 15 17 16 14 12 11 10 11 12 12 14 14 15 15 16 17 17 16 16 13 9 6 6 5 5 2 3 3 3 5 6 8 11 12 12 13 13 13 14 15 15 16 16 14 11 9 9 9 10 9 9 11 13 13 13 11 9 7 7 9 10 11 13 13 13 12 12 12 13 14 15 13 11 11 11 11 10 11 13 14 13
17 18 20 22 22 22 20 17 15 13 11 11 10 11 13 14 14 15 15 16 15 15 15 14 11 10 9 8 6 6 5 5 4 2 2 2 3 3 6 9 10 11 13 13 14 15 16 15 13 10 8 8 10 12 10 10 11 12 11 10 10 9 9 10 11 12 13 14 14 13 12 11 10 12 12 11 10 11 11 9 9 10 12 13 12
16 16 18 20 22 24 23 21 19 17 16 16 14 14 15 15 14 14 15 15 15 14 14 13 12 12 12 10 9 7 7 6 5 4 4 3 3 2 2 4 5 6 6 8 9 11 14 16 17 15 12 11 12 13 10 8 8 10 10 8 8 9 8 8 7 7 9 11 11 10 10 9 8 9 8 8 8 9 8 8 9 10 12 13 15
16 16 17 18 20 21 21 22 21 19 18 18 17 17 17 16 15 15 15 14 13 13 13 12 12 11 11 11 10 9 8 7 6 5 4 3 3 3 3 2 2 3 3 4 3 2 1 4 11 16 16 12 10 10 8 5 3 4 6 6 6 6 5 5 5 6 7 7 6 7 9 9 8 8 8 8 8 8 9 10 11 11 13 14 16
17 17 17 18 19 20 21 21 20 18 17 16 16 16 16 15 15 15 14 12 11 12 11 11 11 11 10 9 8 8 9 9 8 7 6 6 5 4 3 3 3 4 5 6 7 8 10 10 11 14 15 12 8 6 6 3 2 2 3 4 3 3 2 2 2 3 4 4 5 6 8 9 8 8 8 9 8 9 10 11 11 12 12 13 13
17 18 18 18 19 20 20 19 18 18 17 16 16 16 15 14 14 14 13 11 10 10 10 10 10 11 11 10 8 8 10 11 10 9 10 11 11 11 9 7 6 7 7 7 7 9 11 13 13 13 14 13 11 9 9 8 7 6 6 4 3 2 1 2 2 3 3 4 6 6 6 8 9 9 10 10 10 11 11 12 12 12 11 11 12
17 18 19 19 18 18 18 18 17 17 16 16 16 16 15 14 14 14 13 12 10 9 8 8 7 8 9 9 7 8 9 10 10 9 9 10 11 12 11 10 9 8 8 8 9 10 12 13 15 16 16 16 17 16 14 13 13 12 11 9 7 5 3 4 4 3 3 3 5 6 7 8 9 9 9 10 9 9 10 10 10 9 8 9 10
14 16 18 18 16 15 15 15 16 15 14 14 14 15 16 16 15 15 14 13 10 8 8 7 6 7 8 7 7 8 9 9 8 6 7 8 9 10 9 9 10 9 8 9 10 10 12 13 14 15 14 14 16 16 13 13 14 12 11 11 10 8 6 5 5 3 2 3 4 6 7 7 6 5 5 4 4 5 6 6 6 6 7 9 9
11 11 12 13 13 12 12 12 13 13 13 13 14 15 16 15 14 14 14 14 11 9 8 8 7 7 7 7 7 8 9 9 9 7 7 8 7 8 8 9 10 10 9 8 8 10 13 13 13 12 11 11 13 13 11 11 11 10 9 9 9 8 6 6 6 4 4 5 7 8 7 5 3 3 3 3 3 3 4 5 7 8 9 8 7
9 8 8 8 9 9 9 9 9 10 12 14 14 14 15 14 13 13 13 14 12 9 8 9 9 9 8 6 6 6 7 8 10 10 11 11 10 9 10 12 13 13 12 10 6 6 9 9 9 10 11 13 13 11 9 9 9 8 7 6 7 6 5 5 4 4 6 8 10 10 7 3 0 2 3 4 5 4 4 6 8 9 8 6 6
8 7 7 7 6 6 7 8 7 8 11 13 13 12 12 11 11 11 11 11 11 9 8 8 7 7 7 6 5 6 5 7 7 8 10 12 14 13 13 13 13 13 15 15 12 10 11 11 9 10 13 13 11 10 9 8 7 7 6 5 5 5 5 5 5 6 7 8 10 10 8 6 5 2 2 3 4 2 1 4 5 6 7 7 6
9 7 6 6 6 5 6 7 6 5 7 9 10 11 10 9 9 10 9 9 9 7 5 6 7 7 7 6 4 6 8 6 8 9 7 8 10 11 11 11 11 11 11 12 12 12 14 14 12 11 11 10 8 8 7 6 6 6 6 5 5 5 5 5 6 7 7 7 8 8 10 10 9 7 6 4 2 0 2 3 6 7 8 8 8
10 9 8 8 8 7 6 7 6 5 6 6 6 7 7 7 7 8 9 7 9 9 4 5 7 8 9 9 6 6 9 9 7 11 11 8 7 7 8 9 10 10 10 9 9 9 11 11 9 9 9 7 7 7 6 6 6 6 5 5 5 6 6 6 7 7 7 7 8 9 12 10 5 6 6 3 2 3 3 5 8 9 10 10 10
8 8 8 8 8 8 7 8 7 8 8 8 6 5 5 5 5 5 7 7 8 10 7 5 6 6 7 10 9 7 8 9 9 7 7 7 7 7 8 10 11 10 10 9 8 8 8 7 7 6 6 7 7 7 7 7 6 6 5 5 5 6 6 7 8 7 6 7 8 10 13 9 3 3 3 3 3 4 6 7 8 8 9 10 11
Wind_Direction
163 166 169 165 160 159 157 159 160 151 146 147 148 145 141 142 143 145 146 146 149 151 151 153 154 152 149 151 151 147 147 151 151 150 150 149 152 152 150 158 158 155 156 147 128 125 129 133 140 129 113 128 116 73 83 90 35 33 29 324 311 297 291 263 242 273 131 131 112 139 152 181 175 181 190 190 196 176 174 230 184 156 155 174 164
163 167 170 166 163 163 160 163 165 153 150 153 153 150 147 148 150 149 150 153 155 157 157 155 155 155 155 156 151 149 154 157 155 154 149 150 158 157 154 162 160 157 160 154 146 131 130 139 140 124 113 131 98 47 78 115 58 35 356 316 302 289 296 301 162 126 159 194 198 169 164 178 183 201 215 211 207 187 168 185 190 166 150 158 166
166 173 172 168 168 166 162 167 169 156 154 158 157 154 151 152 155 152 153 158 159 160 159 156 156 155 156 158 155 155 160 159 155 153 149 152 159 157 161 171 164 159 165 158 156 153 146 145 143 126 113 125 119 340 214 165 114 26 352 334 313 297 293 323 174 248 310 211 179 181 166 167 204 232 240 229 198 180 169 171 199 173 143 156 187
170 178 174 171 172 168 166 171 169 160 159 162 161 159 155 155 157 155 158 160 159 160 159 157 155 149 144 153 160 159 157 157 153 151 153 156 158 159 170 175 163 163 171 161 162 174 161 149 158 166 142 142 178 204 297 327 31 351 312 281 313 312 303 332 213 248 344 40 89 288 99 109 281 248 244 230 192 200 184 173 191 152 135 174 214
175 179 177 176 173 168 169 173 170 164 164 166 166 163 157 158 159 159 160 159 159 160 160 156 154 147 137 144 155 150 146 152 152 153 157 160 160 163 171 172 164 167 171 170 168 171 166 163 170 170 154 171 195 221 293 271 240 205 267 291 324 323 324 338 332 242 64 32 8 40 53 41 308 327 315 259 288 276 192 150 194 156 139 190 218
179 180 178 177 173 168 171 175 172 169 171 171 170 165 158 159 160 159 161 161 160 160 161 160 156 150 142 143 150 147 147 153 156 159 161 163 164 165 169 169 169 170 171 176 172 169 181 180 166 156 158 187 210 235 246 232 218 205 250 319 324 322 332 338 339 26 113 242 62 102 90 111 184 321 345 292 282 301 335 102 205 193 140 151 205
181 185 179 178 176 170 172 178 176 173 176 173 171 167 158 158 161 159 161 161 160 160 161 163 160 158 155 154 155 153 153 159 162 161 163 169 163 160 167 170 172 172 172 176 170 170 185 183 167 161 175 190 201 221 230 250 252 231 218 322 316 311 339 342 340 359 298 239 198 123 131 157 198 199 48 315 296 311 319 351 211 210 167 176 195
181 187 180 179 179 174 175 181 180 175 176 175 173 168 157 157 162 161 161 161 161 162 161 162 163 163 166 165 164 163 157 158 166 164 168 176 161 156 167 171 175 175 172 176 171 171 178 178 179 183 194 194 188 205 222 238 212 156 167 298 319 317 338 337 335 351 343 296 35 24 341 312 224 150 114 286 299 320 308 315 346 353 187 212 159
181 187 181 181 180 177 177 181 184 177 174 176 173 166 157 159 163 161 163 163 162 164 163 164 165 164 168 168 168 171 162 158 167 167 167 171 160 159 170 169 176 179 173 175 172 175 180 177 186 197 200 181 181 219 215 203 191 156 195 251 268 284 328 323 318 351 348 339 26 351 328 341 323 286 174 196 233 195 333 331 1 15 23 332 3
184 187 184 185 182 180 179 182 185 177 174 178 174 167 161 161 163 163 165 164 163 166 165 165 167 167 171 170 167 168 163 158 162 162 163 167 162 166 172 170 177 178 173 179 177 180 187 181 184 197 201 178 187 227 208 186 205 205 221 238 244 239 284 308 307 339 338 331 348 341 322 326 314 311 352 100 266 220 268 352 31 18 352 286 342
186 191 187 186 184 182 180 183 183 174 176 181 171 165 164 164 164 165 167 166 164 167 168 166 167 171 174 172 166 161 161 160 158 159 163 169 170 169 170 172 182 179 172 180 182 181 190 188 182 187 198 195 195 222 213 200 229 233 221 219 222 236 245 284 291 295 299 302 307 304 286 279 273 295 319 332 311 294 339 6 83 48 301 264 300
186 192 186 183 184 182 182 186 183 175 179 180 169 164 166 166 166 165 166 167 166 168 170 169 168 172 174 173 170 163 163 165 164 165 167 172 175 173 174 180 187 185 178 182 188 187 188 189 188 191 199 198 191 207 217 218 233 220 195 203 221 222 236 268 278 282 283 288 299 301 276 284 321 326 305 309 309 307 345 330 283 132 275 267 258
189 191 186 183 187 185 183 185 182 177 178 176 169 165 166 167 167 167 168 167 168 169 171 172 171 173 173 172 175 171 168 169 170 173 175 178 180 175 177 184 188 189 186 185 188 191 188 186 195 200 198 196 195 205 216 218 219 200 176 203 225 207 225 257 272 282 280 283 298 309 300 313 358 339 322 1 352 323 358 341 332 18 337 291 299
195 191 190 185 184 184 183 179 177 178 176 177 174 166 164 168 168 169 169 168 169 170 172 174 173 174 175 174 177 177 174 173 175 179 181 183 183 179 179 183 188 192 193 192 189 192 192 187 195 202 195 200 208 208 214 213 200 190 191 213 217 207 224 251 268 276 284 286 279 294 310 307 323 320 315 356 4 350 9 359 347 1 349 327 325
212 195 193 187 177 181 183 174 173 178 178 180 177 164 161 167 169 170 170 170 171 172 173 175 175 176 177 177 178 180 179 178 182 186 185 185 187 187 186 184 189 194 194 197 195 194 197 191 193 202 201 205 211 209 211 216 206 198 215 226 225 232 228 235 260 265 279 294 276 280 307 300 300 317 310 328 350 344 341 356 356 349 345 340 332
229 204 193 186 177 179 181 173 174 181 184 184 174 163 162 165 168 171 172 173 172 173 175 176 177 178 178 180 181 182 184 184 188 189 186 188 188 188 190 187 191 198 194 195 196 193 198 196 192 199 205 205 207 205 205 214 213 207 224 231 221 236 242 237 250 251 253 273 272 261 273 277 279 292 303 313 324 290 297 339 319 307 27 356 328
211 226 203 186 179 182 180 175 180 184 186 184 174 166 164 164 169 173 173 175 175 174 177 177 178 179 179 181 184 185 188 188 190 190 188 190 187 184 189 188 191 197 192 193 201 196 198 199 194 201 208 205 204 204 205 215 217 207 223 233 216 227 251 245 242 246 247 271 282 264 250 258 262 273 288 283 279 293 300 294 293 316 36 304 268
192 196 263 193 177 182 183 178 182 186 186 182 173 168 165 165 172 176 175 177 178 176 177 178 179 180 180 183 186 188 191 193 193 191 189 189 186 182 186 189 193 201 194 190 198 200 202 206 202 206 212 209 206 205 205 218 221 211 223 237 224 229 248 244 242 248 250 266 278 276 270 258 257 279 290 263 259 285 301 298 310 305 261 229 206
187 180 244 218 176 181 186 182 182 183 184 178 171 170 170 171 176 179 178 179 180 180 179 179 181 183 183 184 188 189 192 198 196 191 190 192 191 187 190 194 198 205 201 196 202 204 205 209 208 210 214 210 211 210 206 214 221 219 228 237 232 237 246 245 247 251 248 259 264 265 276 269 262 283 290 275 271 265 273 290 292 264 253 235 221
183 179 199 223 186 184 185 186 182 179 179 176 174 177 176 177 180 179 178 180 182 183 181 181 185 187 186 185 188 191 193 198 199 196 195 196 197 192 192 199 198 197 198 200 207 206 203 208 210 215 217 211 212 214 211 214 220 221 224 232 236 239 242 244 249 251 249 258 256 248 258 262 259 271 274 276 272 251 252 265 260 260 259 239 231
181 175 184 186 194 191 189 189 179 172 175 172 174 181 178 177 182 179 176 181 186 185 180 184 188 189 188 187 189 193 195 198 200 201 200 200 201 196 196 203 202 200 201 203 209 208 206 209 211 215 219 215 214 215 215 216 219 222 224 231 236 233 234 239 245 251 253 254 252 244 247 256 255 258 262 269 271 260 253 248 249 260 262 250 252
187 177 182 182 175 186 209 201 171 165 174 171 167 177 178 173 180 181 177 181 190 188 181 184 190 190 189 190 193 194 197 200 200 201 202 203 202 198 199 204 205 205 204 205 213 213 211 213 213 215 219 218 216 216 219 218 216 221 225 227 232 231 236 243 244 249 251 249 250 247 247 253 252 251 253 258 264 265 256 240 241 253 268 282 275
190 182 176 173 172 183 209 216 179 169 175 168 157 161 165 162 170 179 180 183 191 192 183 182 188 191 191 193 196 195 197 202 204 204 206 206 205 202 200 198 199 205 206 208 216 213 211 217 216 215 217 219 220 218 221 222 218 221 224 226 230 231 235 240 241 243 246 245 247 246 246 249 250 248 248 251 262 271 272 267 257 255 268 274 260
181 185 175 167 167 178 198 204 186 166 156 153 151 152 158 166 173 178 182 183 190 195 186 184 190 192 194 196 197 198 199 203 206 208 209 209 209 207 200 196 201 210 208 211 219 217 219 221 217 219 222 221 222 222 223 224 223 224 227 230 233 233 233 236 239 241 242 241 243 244 244 246 251 255 253 255 265 271 272 275 268 261 264 264 254
128 133 131 138 142 126 145 180 155 130 129 144 150 150 160 176 181 180 185 183 188 197 191 186 190 193 197 201 200 200 202 204 206 210 212 213 214 212 205 200 203 211 210 212 218 220 225 226 218 219 228 226 225 227 226 225 227 229 228 230 234 239 243 241 240 243 244 243 245 247 248 247 252 256 255 256 262 263 266 269 266 262 266 268 263
121 123 119 116 105 84 71 62 100 119 133 146 150 153 164 176 176 180 189 186 187 197 193 187 187 190 196 205 207 206 206 207 210 212 214 214 214 216 213 202 198 206 212 214 217 218 223 228 223 219 227 230 226 227 230 230 230 230 229 229 231 238 245 246 245 247 248 247 248 251 252 251 251 254 253 254 258 258 262 268 267 268 273 273 273
136 141 134 119 112 109 110 110 114 123 136 145 149 156 168 176 175 177 185 189 195 200 195 190 192 194 195 200 211 215 212 212 214 216 219 219 217 219 218 206 196 201 207 210 215 219 220 224 224 221 227 232 229 229 234 233 232 233 233 233 233 235 239 244 249 250 250 250 250 249 250 248 246 249 251 254 259 258 257 265 271 272 273 270 272
142 145 139 125 128 137 143 138 129 123 128 140 144 147 161 174 179 182 186 190 195 195 190 191 197 201 200 203 212 217 215 217 220 221 222 224 223 223 223 213 199 199 206 208 212 219 221 221 222 223 225 228 230 231 234 235 235 236 235 234 236 237 239 244 249 251 252 253 252 251 250 248 246 246 245 246 255 257 254 259 267 271 276 280 282
158 154 147 141 145 157 170 148 129 119 109 113 125 136 151 163 168 176 183 185 182 179 182 189 194 200 204 208 213 217 221 224 227 230 231 232 234 233 231 224 209 204 209 212 214 219 220 218 219 222 223 225 228 230 233 235 235 236 235 234 235 235 237 242 248 251 253 254 255 253 252 252 251 248 242 239 241 245 247 249 254 264 276 284 285
156 152 148 154 156 164 181 169 140 127 109 76 47 135 170 173 170 168 166 164 163 165 178 191 195 200 203 204 209 217 221 220 221 227 229 232 243 248 245 238 221 211 213 217 222 226 222 217 218 219 220 224 226 229 234 234 233 235 236 235 237 239 240 242 248 254 255 256 258 256 255 255 255 253 252 244 237 237 243 249 254 259 262 264 269
129 155 159 158 149 127 160 154 143 153 162 180 213 232 232 222 219 215 205 203 202 189 194 206 210 213 207 201 206 213 213 206 196 201 211 215 224 237 246 250 242 228 225 227 229 230 224 219 221 221 221 225 227 231 237 238 233 232 235 237 241 244 245 245 251 256 258 259 262 265 265 262 258 259 262 256 248 248 253 257 260 264 262 259 259
121 133 148 147 126 92 92 89 108 152 163 180 200 214 220 218 222 227 227 232 235 230 232 234 232 234 230 225 228 224 220 211 192 180 209 240 236 244 251 256 255 246 244 245 237 230 224 220 222 223 225 229 231 231 239 245 238 231 232 237 240 243 247 248 251 256 259 260 262 267 274 274 269 264 262 258 257 258 260 262 264 267 266 263 261
103 94 85 84 76 74 82 72 62 90 100 127 176 188 197 202 207 214 217 224 229 230 234 239 241 244 242 242 246 254 262 243 227 234 253 264 269 274 269 266 267 256 253 255 249 236 234 230 226 228 235 241 242 241 247 251 243 238 239 239 237 242 251 254 258 261 259 258 261 266 274 279 282 280 276 271 266 262 263 265 267 269 271 272 270
80 81 79 83 79 74 76 72 56 57 61 60 74 89 97 103 109 155 189 196 202 216 225 230 236 243 244 245 249 257 270 255 233 242 247 249 257 264 261 259 261 257 257 260 255 248 245 239 234 239 247 251 249 251 256 253 246 247 247 239 233 239 252 261 270 276 274 271 274 278 281 284 289 290 288 286 281 274 270 268 267 269 273 276 278
78 78 76 84 94 98 97 96 88 78 76 77 74 71 75 77 73 73 80 86 85 84 122 192 198 203 220 232 238 243 245 226 213 223 234 242 247 251 249 249 252 253 254 256 255 253 250 245 241 246 255 258 240 242 252 254 250 246 240 230 228 236 251 261 268 279 288 289 288 288 290 295 302 305 299 294 289 281 274 271 272 273 274 276 280
90 93 93 90 89 90 91 96 104 103 97 93 87 78 75 73 72 73 72 74 80 79 78 114 167 176 185 204 217 220 228 236 230 221 227 237 239 241 242 242 244 246 245 245 250 252 250 246 244 245 252 255 243 237 242 240 235 231 223 220 230 243 256 268 270 277 290 299 298 293 290 291 299 308 310 307 304 293 280 274 275 278 283 286 287
74 77 90 100 100 94 86 83 85 87 84 79 76 77 77 74 74 74 71 72 78 77 71 80 114 124 93 108 155 215 238 246 242 236 240 240 236 239 242 240 239 236 234 237 243 245 246 247 246 244 247 244 236 237 236 216 203 208 212 216 231 253 266 272 273 274 277 283 291 294 294 293 292 291 290 291 298 301 295 289 285 287 292 295 297
59 55 57 66 81 89 88 88 84 81 87 92 91 90 90 87 81 74 69 68 67 63 60 62 68 72 76 88 103 141 232 240 227 236 247 244 242 244 244 239 235 233 233 236 238 239 241 240 235 232 235 231 221 219 217 207 203 208 214 216 224 246 259 261 265 269 270 275 285 288 286 284 280 276 272 269 276 288 294 300 303 299 295 295 299
63 61 55 50 53 59 63 68 68 65 74 85 84 82 85 87 83 76 72 69 61 55 55 55 56 68 81 87 94 101 100 94 98 118 153 201 239 252 244 238 236 236 238 239 241 245 246 241 232 223 214 207 202 200 204 214 214 211 213 222 233 244 254 260 270 276 274 274 278 280 281 278 272 270 267 266 276 284 287 295 304 307 306 304 304
68 69 68 61 58 56 53 49 46 45 51 53 50 54 62 67 70 70 70 68 59 54 56 58 59 69 78 80 82 90 97 99 97 101 108 115 112 110 165 216 219 222 234 242 246 250 250 241 227 213 202 199 194 189 195 214 222 216 216 224 235 243 251 257 269 279 277 275 273 273 275 273 267 266 267 270 282 290 291 292 296 302 305 301 298
72 71 70 66 63 62 59 51 43 43 48 48 45 46 47 49 56 63 64 65 62 59 59 60 61 65 71 78 82 84 88 90 92 94 91 83 89 112 133 146 161 165 158 152 146 130 118 185 180 174 171 173 169 164 172 188 207 204 195 201 216 229 238 245 259 276 280 284 286 273 267 268 271 274 276 279 285 291 293 292 292 293 293 292 295
71 73 74 70 64 62 60 55 48 46 50 54 54 52 45 42 45 51 56 60 62 60 59 57 58 60 62 63 71 83 81 72 69 74 74 70 76 95 110 100 106 131 140 138 127 108 91 97 125 142 146 147 141 135 140 131 76 81 121 155 194 219 243 253 286 305 296 309 319 296 271 267 275 281 282 283 287 290 290 290 291 291 294 297 298
61 64 67 68 66 62 61 59 54 48 46 48 52 53 50 44 40 40 45 53 58 61 61 55 51 57 59 48 45 66 78 73 67 66 65 66 70 74 74 75 97 127 144 150 148 136 120 114 116 115 116 117 109 100 97 92 82 76 78 89 111 124 177 171 96 30 348 350 347 326 296 283 286 290 291 292 292 292 292 292 294 298 301 301 297
62 63 65 65 61 59 60 60 57 53 49 47 47 49 48 43 39 37 37 39 43 54 64 60 50 53 60 56 47 53 66 73 72 67 66 69 67 65 68 76 86 98 115 129 143 153 144 130 118 106 101 98 94 90 86 85 85 81 76 76 78 82 115 135 101 50 15 9 348 323 307 301 299 297 296 294 291 292 295 296 299 306 308 303 305
78 74 75 71 63 57 55 54 54 56 57 55 54 52 47 40 32 30 29 27 26 34 46 54 55 43 43 53 57 51 53 61 68 71 71 73 73 66 65 72 71 68 82 103 117 130 133 129 121 113 109 105 99 93 87 83 79 72 69 67 59 56 66 77 67 39 350 338 326 313 304 299 305 316 318 316 319 320 319 313 308 304 301 307 321
98 89 85 79 72 66 60 53 51 52 53 57 59 55 49 42 33 25 18 12 12 21 27 33 43 39 37 53 63 59 58 52 45 48 54 55 68 74 61 51 50 52 62 81 101 115 117 118 118 117 120 119 108 98 91 87 81 74 70 64 51 44 43 47 42 8 325 319 316 310 303 297 322 13 5 354 0 352 334 334 338 328 312 309 322
115 109 101 92 82 77 74 67 60 57 56 58 61 58 52 45 38 30 16 4 3 10 18 25 34 32 29 40 48 50 72 69 44 34 40 40 42 53 51 38 31 31 33 32 48 102 108 108 115 114 111 111 108 101 94 89 83 79 76 65 54 43 28 28 19 328 300 297 297 296 292 278 298 49 18 349 340 332 326 339 354 358 347 333 329
131 127 118 107 98 95 97 89 79 78 76 70 68 66 61 54 47 41 31 12 2 3 11 20 35 38 24 18 19 21 56 91 74 35 29 34 38 44 47 35 25 25 26 22 23 44 55 53 62 79 89 96 94 85 81 75 66 66 62 52 45 32 13 2 339 313 295 288 289 290 286 270 254 252 321 323 312 311 353 353 358 14 18 10 12
148 146 143 134 122 114 110 101 93 101 100 87 80 76 73 76 73 62 51 26 357 348 358 8 25 43 28 10 22 24 20 53 104 98 68 44 41 45 44 33 23 22 27 26 27 38 45 46 46 51 67 83 76 59 56 51 42 44 40 29 20 9 2 354 337 325 311 300 302 306 297 280 254 240 252 274 293 124 101 49 29 32 25 20 33
168 163 159 152 141 134 127 120 118 121 117 108 103 91 81 84 83 75 72 47 356 336 345 19 24 30 18 9 29 43 17 17 68 97 96 89 74 61 52 46 38 28 25 28 31 35 44 55 53 40 42 55 52 37 27 22 22 21 14 11 4 353 349 347 343 337 322 315 323 319 307 295 257 235 255 281 28 56 61 44 34 31 24 27 44
171 165 159 150 144 146 145 139 137 134 124 118 115 105 87 83 83 76 79 67 19 353 355 28 46 44 25 19 28 35 24 22 34 57 83 108 112 96 75 64 60 53 42 39 40 40 47 65 68 46 24 18 17 11 3 0 1 356 348 347 346 345 348 349 348 349 341 330 324 312 308 312 310 284 308 2 40 47 49 43 32 20 13 22 34